Flag for United Kingdom Weather past 2 weeks in Swansea, Wales, United Kingdom

Now
60 °F

Cool.


Feels Like: 60 °F
Forecast: 57 / 72 °F
Wind: 10 mph from East

Location: Mumbles

Current Time: Jun 30, 2015 at 6:21:02 AM

Latest Report: Jun 30, 2015 at 5:00 AM


Visibility: N/A

Pressure: 30.11 "Hg

Humidity: 92%

Dew point: 58 °F

Location of SwanseaLocation

Historic Weather in Swansea — Graph

°F

Swansea temperature yesterday

Maximum temperature yesterday: 67 °F (at 4:00 PM)
Minimum temperature yesterday: 57 °F (at 6:00 AM)
Average temperature yesterday: 62 °F

Past Weeks' High & Low Weather Summary

 TemperatureHumidityPressure
High67 °F (Jun 29, 4:00 PM)100% (Jun 17, 11:00 PM)30.36 "Hg (Jun 17, 11:00 PM)
Low50 °F (Jun 22, 8:00 AM)53% (Jun 22, 8:00 PM)29.89 "Hg (Jun 22, 10:00 AM)
Average59 °F84%30.16 "Hg
* Reported Jun 15 5:00 AM — Jun 30 4:00 AM, Swansea, Weather by CustomWeather, © 2015

Note: Actual official high and low records may vary slightly from our data, if they occured in-between our weather recording intervals... More about our weather records

Advertising

Swansea weather history for previous 24 hours

 ConditionsComfort  
Time TempWeatherWind HumidityBarometerVisibility
4:00 AM
Tue, Jun 30
61 °FCool.12 mph88%30.12 "HgN/A
3:00 AM62 °FCool.6 mph89%30.14 "HgN/A
2:00 AM62 °FCool.6 mph83%30.15 "HgN/A
1:00 AM62 °FCool.3 mph86%30.16 "HgN/A
12:00 AM62 °FCool.3 mph86%30.17 "HgN/A
11:00 PM
Mon, Jun 29
64 °FMild.1 mph69%30.17 "HgN/A
9:00 PM63 °FMild.2 mph76%30.17 "HgN/A
8:00 PM63 °FMild.2 mph74%30.17 "HgN/A
7:00 PM64 °FMild.2 mph64%30.18 "HgN/A
6:00 PM63 °FMild.6 mph75%30.19 "HgN/A
5:00 PM65 °FMild.6 mph76%30.20 "HgN/A
4:00 PM67 °FMild.7 mph73%30.21 "HgN/A
3:00 PM67 °FMild.6 mph72%30.21 "HgN/A
2:00 PM66 °FMild.6 mph76%30.22 "HgN/A
1:00 PM66 °FMild.6 mph77%30.22 "HgN/A
12:00 PM65 °FMild.9 mph76%30.22 "HgN/A
11:00 AM63 °FMild.9 mph83%30.22 "HgN/A
9:00 AM60 °FCool.8 mph88%30.22 "HgN/A
8:00 AM59 °FCool.6 mph89%30.20 "HgN/A
7:00 AM58 °FCool.6 mph91%30.19 "HgN/A
6:00 AM57 °FCool.8 mph94%30.18 "HgN/A
Weather by CustomWeather, © 2015

See weather overviewHow to use our weather pages